User: anonymous   Login
Location: Unspecified
(0.0000°N, 0.0000°E)
Time: 23:14:54
(UTC+00:00)
Language:

Kosmos-2026 - Orbit

View from above orbital plane
View from above orbital plane
View from above satellite
View from above satellite

Ground track
Ground track

The orbit data is extracted from the following two-line orbital elements,

1 20045U 89042A   18016.88915181  .00000006  00000-0 -90105-5 0  9998
2 20045  82.9407 169.7763 0038707 270.5844 243.7956 13.76012697436828
Epoch (UTC): 16 January 2018 21:20:22
Eccentricity: 0.0038707
inclination: 82.9407°
perigee height: 949 km
apogee height: 1006 km
right ascension of ascending node: 169.7763°
argument of perigee: 270.5844°
revolutions per day: 13.76012697
mean anomaly at epoch: 243.7956°
orbit number at epoch: 43682

The dashed part of the orbit path shows where the satellite is in the earth's shadow,  

DLR